Waarnemingen

Advertentie
Mijn weer
Rotterdam Zestienhoven, Nederland (6344): temperatuur & dauwpunt: 19.06.2017 05:00:00 - 25.06.2017 05:00:00 (CEST)Rotterdam Zestienhoven, Nederland (6344): temperatuur 5cm: 19.06.2017 05:00:00 - 25.06.2017 05:00:00 (CEST)Rotterdam Zestienhoven, Nederland (6344): windsnelheid & windstoten: 19.06.2017 05:00:00 - 25.06.2017 05:00:00 (CEST)Rotterdam Zestienhoven, Nederland (6344): windrichting: 19.06.2017 05:00:00 - 25.06.2017 05:00:00 (CEST)Rotterdam Zestienhoven, Nederland (6344): luchtdruk: 19.06.2017 05:00:00 - 25.06.2017 05:00:00 (CEST)Rotterdam Zestienhoven, Nederland (6344): zicht: 19.06.2017 05:00:00 - 25.06.2017 05:00:00 (CEST)Rotterdam Zestienhoven, Nederland (6344): neerslag: 19.06.2017 05:00:00 - 25.06.2017 05:00:00 (CEST)
Datum & Tijd tt [°C] td [°C] tt 5cm [°C] ff [km/u] ff [kn] fx [km/u] fx [kn] dd ppp [hPa] vv [km] rr [mm]
25.06.2017 05:00:00 16,9 16,3 16,7 21 11 36 19 WZW 1010,0 6 1,1
25.06.2017 04:00:00 17,6 15,8 17,4 26 14 36 19 WZW 1010,1 10 0,0
25.06.2017 03:00:00 17,7 15,7 17,4 26 14 43 23 WZW 1010,6 10 0,0
25.06.2017 02:00:00 17,8 15,7 17,5 28 15 47 25 WZW 1010,9 10 0,0
25.06.2017 01:00:00 18,3 16,0 18,0 26 14 47 25 ZW 1011,2 10 0,0
25.06.2017 00:00:00 18,4 15,9 17,9 22 12 43 23 WZW 1011,8 10 0,0
24.06.2017 23:00:00 18,2 16,1 17,8 24 13 40 21 ZW 1012,0 10 0,0
24.06.2017 22:00:00 18,2 16,1 17,8 26 14 43 23 ZW 1012,0 10 0,0
24.06.2017 21:00:00 18,1 16,1 17,7 26 14 43 23 WZW 1012,2 10 0,0
24.06.2017 20:00:00 18,0 16,1 17,7 16 9 43 23 WZW 1012,6 10 0,0
24.06.2017 19:00:00 17,4 16,3 17,1 26 14 47 25 WZW 1012,9 10 0,1
24.06.2017 18:00:00 17,3 16,4 17,4 26 14 47 25 ZW 1013,3 3,5 0,3
24.06.2017 17:00:00 17,3 16,0 17,2 26 14 47 25 ZW 1013,9 4,9 0,1
24.06.2017 16:00:00 18,6 15,5 18,5 22 12 43 23 WZW 1014,0 10 0,0
24.06.2017 15:00:00 18,9 15,4 19,3 22 12 40 21 WZW 1014,2 10 0,0
24.06.2017 14:00:00 18,6 15,5 18,7 26 14 40 21 WZW 1014,3 10 0,0
24.06.2017 13:00:00 18,7 15,8 18,5 24 13 36 19 WZW 1014,1 10 0,0
24.06.2017 12:00:00 17,8 16,0 17,9 22 12 40 21 WZW 1014,1 10 0,0
24.06.2017 11:00:00 17,0 15,8 16,9 21 11 32 18 ZW 1014,0 10 0,0
24.06.2017 10:00:00 16,7 16,0 16,9 21 11 36 19 WZW 1014,0 3,6 0,5
24.06.2017 09:00:00 16,4 15,6 16,4 22 12 40 21 WZW 1013,9 2,8 0,3
24.06.2017 08:00:00 17,2 14,9 17,4 26 14 43 23 WZW 1013,5 10 0,0
24.06.2017 07:00:00 17,6 14,4 17,4 29 16 47 25 WZW 1013,6 10 0,0
24.06.2017 06:00:00 17,6 14,8 17,0 26 14 40 21 WZW 1013,7 10 0,0
24.06.2017 05:00:00 17,7 14,9 17,4 16 9 40 21 ZW 1014,0 10 0,0
24.06.2017 04:00:00 17,7 14,7 17,4 28 15 43 23 WZW 1014,6 10 0,0
24.06.2017 03:00:00 17,5 14,7 17,3 21 11 32 18 ZW 1015,0 10 0,0
24.06.2017 02:00:00 17,8 14,5 17,5 21 11 36 19 ZW 1015,1 10 0,0
24.06.2017 01:00:00 17,9 14,5 17,6 26 14 40 21 ZW 1015,5 10 0,0
24.06.2017 00:00:00 18,3 14,2 17,9 29 16 50 27 ZW 1015,7 10 0,0
23.06.2017 23:00:00 18,4 14,1 17,9 34 18 50 27 ZW 1015,8 10 0,0
23.06.2017 22:00:00 18,6 14,3 18,3 28 15 47 25 WZW 1015,9 10 0,0
23.06.2017 21:00:00 19,0 13,7 18,9 24 13 43 23 WZW 1015,8 10 0,0
23.06.2017 20:00:00 19,4 13,6 19,4 29 16 40 21 WZW 1015,7 10 0,0
23.06.2017 19:00:00 19,9 14,1 20,5 29 16 47 25 W 1015,8 10 0,0
23.06.2017 18:00:00 20,6 12,8 22,4 28 15 47 25 W 1015,9 10 0,0
23.06.2017 17:00:00 20,7 12,7 23,5 29 16 47 25 W 1016,0 10 0,0
23.06.2017 16:00:00 20,5 12,3 22,6 31 17 54 29 WZW 1016,0 10 0,0
23.06.2017 15:00:00 21,2 12,3 24,3 26 14 47 25 WZW 1016,1 10 0,0
23.06.2017 14:00:00 21,2 15,1 21,5 28 15 47 25 W 1015,8 10 0,0
23.06.2017 13:00:00 21,3 14,2 24,4 29 16 40 21 ZW 1015,3 10 0,0
23.06.2017 12:00:00 20,6 15,0 21,3 22 12 36 19 W 1015,3 10 0,0
23.06.2017 11:00:00 20,3 14,6 22,0 18 10 29 16 WZW 1015,3 10 0,0
23.06.2017 10:00:00 20,1 14,2 22,0 11 6 22 12 W 1014,9 10 0,0
23.06.2017 09:00:00 18,8 13,5 19,7 11 6 18 10 W 1014,6 10 0,0
23.06.2017 08:00:00 18,2 14,0 18,6 11 6 18 10 W 1014,2 10 0,0
23.06.2017 07:00:00 17,1 14,8 16,6 11 6 18 10 W 1013,7 10 0,0
23.06.2017 06:00:00 16,7 15,1 15,6 11 6 18 10 W 1013,6 10 0,0
23.06.2017 05:00:00 15,6 14,9 13,6 9 5 11 6 WZW 1013,2 7 0,0
23.06.2017 04:00:00 16,4 14,8 13,2 4 2 7 4 WZW 1013,2 10 0,0
23.06.2017 03:00:00 16,9 14,6 16,1 8 4 14 8 W 1013,4 10 0,0
23.06.2017 02:00:00 17,0 14,9 16,6 9 5 14 8 W 1013,5 10 0,0
23.06.2017 01:00:00 16,6 14,9 15,8 8 4 14 8 WZW 1013,2 10 0,0
23.06.2017 00:00:00 16,7 14,6 16,0 11 6 25 14 WNW 1012,9 10 0,0
22.06.2017 23:00:00 17,2 14,9 16,8 16 9 36 19 WNW 1012,7 10 0,0
22.06.2017 22:00:00 18,5 15,0 18,2 16 9 36 19 W 1012,1 10 0,0
22.06.2017 21:00:00 19,0 15,1 18,4 26 14 36 19 W 1011,5 10 0,0
22.06.2017 20:00:00 19,2 16,5 19,1 24 13 47 25 WZW 1010,9 10 0,0
22.06.2017 19:00:00 19,6 17,1 19,7 24 13 43 23 W 1010,3 10 0,0
22.06.2017 18:00:00 19,7 17,5 19,9 29 16 50 27 W 1009,9 9 2,1
22.06.2017 17:00:00 19,3 16,7 18,8 18 10 43 23 WZW 1010,2 10 0,1
22.06.2017 16:00:00 20,9 16,1 21,4 24 13 43 23 W 1009,7 10 0,0
22.06.2017 15:00:00 24,4 16,1 27,5 31 17 54 29 W 1010,7 10 0,0
22.06.2017 14:00:00 27,3 14,3 29,4 24 13 43 23 WZW 1010,1 10 0,0
22.06.2017 13:00:00 28,4 16,0 30,0 28 15 43 23 WZW 1010,0 10 0,0
22.06.2017 12:00:00 28,8 14,9 30,7 28 15 43 23 WZW 1010,0 10 0,0
22.06.2017 11:00:00 26,9 19,0 28,6 28 15 40 21 WZW 1010,0 10 0,0
22.06.2017 10:00:00 27,1 19,1 26,2 15 8 29 16 ZW 1009,9 10 0,0
22.06.2017 09:00:00 25,7 18,6 26,8 21 11 36 19 WZW 1010,0 10 0,0
22.06.2017 08:00:00 25,3 17,6 25,4 15 8 25 14 ZW 1009,9 10 0,0
22.06.2017 07:00:00 23,9 16,5 23,0 15 8 18 10 Z 1010,1 10 0,0
22.06.2017 06:00:00 23,3 15,8 21,7 15 8 22 12 Z 1010,3 10 0,0
22.06.2017 05:00:00 23,6 15,5 22,5 18 10 29 16 Z 1010,5 10 0,0
22.06.2017 04:00:00 24,0 15,1 22,9 21 11 29 16 ZZO 1011,1 10 0,0
22.06.2017 03:00:00 24,3 15,1 22,6 16 9 29 16 ZZO 1011,9 10 0,0
22.06.2017 02:00:00 24,2 15,5 22,6 9 5 29 16 ZO 1012,6 10 0,0
22.06.2017 01:00:00 24,3 15,9 22,5 15 8 25 14 ZO 1012,8 10 0,0
22.06.2017 00:00:00 24,2 16,2 22,4 11 6 18 10 OZO 1013,4 10 0,0
21.06.2017 23:00:00 24,5 16,3 22,4 9 5 14 8 O 1014,0 10 0,0
21.06.2017 22:00:00 25,1 16,3 23,0 5 3 18 10 O 1014,1 10 0,0
21.06.2017 21:00:00 26,7 15,8 25,4 15 8 22 12 O 1013,9 10 0,0
21.06.2017 20:00:00 27,9 15,8 27,6 13 7 22 12 O 1014,1 10 0,0
21.06.2017 19:00:00 28,0 15,0 27,7 15 8 22 12 O 1014,2 10 0,0
21.06.2017 18:00:00 28,7 15,2 29,4 11 6 22 12 O 1014,7 10 0,0
21.06.2017 17:00:00 28,7 15,1 29,9 11 6 25 14 O 1015,4 10 0,0
21.06.2017 16:00:00 27,8 14,7 29,4 13 7 29 16 O 1015,8 10 0,0
21.06.2017 15:00:00 27,5 14,9 29,7 16 9 25 14 O 1016,2 10 0,0
21.06.2017 14:00:00 26,3 14,5 28,3 18 10 29 16 O 1017,0 32 0,0
21.06.2017 13:00:00 24,9 13,8 27,0 16 9 25 14 O 1017,8 10 0,0
21.06.2017 12:00:00 24,2 13,5 26,4 15 8 29 16 O 1018,1 10 0,0
21.06.2017 11:00:00 21,8 12,6 23,6 21 11 25 14 ONO 1018,3 10 0,0
21.06.2017 10:00:00 20,6 12,0 21,9 16 9 25 14 O 1018,3 10 0,0
21.06.2017 09:00:00 18,0 11,3 19,1 15 8 22 12 O 1018,6 10 0,0
21.06.2017 08:00:00 16,5 10,7 17,2 15 8 22 12 ONO 1018,8 10 0,0
21.06.2017 07:00:00 14,8 10,9 14,6 13 7 22 12 ONO 1018,9 10 0,0
21.06.2017 06:00:00 13,9 10,8 13,0 13 7 22 12 ONO 1018,8 10 0,0
21.06.2017 05:00:00 14,0 10,9 13,3 15 8 25 14 ONO 1018,9 10 0,0
21.06.2017 04:00:00 14,6 11,0 13,9 16 9 25 14 ONO 1019,3 10 0,0
21.06.2017 03:00:00 14,9 11,4 14,2 16 9 22 12 ONO 1019,3 10 0,0
21.06.2017 02:00:00 16,0 11,5 15,2 16 9 25 14 ONO 1019,3 10 0,0
21.06.2017 01:00:00 16,9 12,6 16,0 16 9 29 16 ONO 1019,3 10 0,0
21.06.2017 00:00:00 17,9 13,5 17,2 18 10 29 16 ONO 1019,2 10 0,0
20.06.2017 23:00:00 19,2 14,5 18,3 21 11 29 16 NO 1019,1 10 0,0
20.06.2017 22:00:00 20,0 15,4 19,1 18 10 32 18 NO 1018,9 10 0,0
20.06.2017 21:00:00 21,6 16,1 21,2 21 11 32 18 NO 1018,6 10 0,0
20.06.2017 20:00:00 23,3 17,0 23,6 16 9 29 16 NO 1018,4 10 0,0
20.06.2017 19:00:00 24,6 17,7 25,3 18 10 32 18 NO 1018,2 10 0,0
20.06.2017 18:00:00 24,7 18,0 25,5 24 13 36 19 NO 1018,4 10 0,0
20.06.2017 17:00:00 24,8 17,5 24,9 21 11 32 18 NO 1018,2 10 0,0
20.06.2017 16:00:00 26,5 17,4 27,4 21 11 32 18 NO 1018,3 10 0,0
20.06.2017 15:00:00 28,0 16,8 30,1 18 10 36 19 NO 1018,1 10 0,0
20.06.2017 14:00:00 27,1 16,0 29,0 15 8 25 14 NO 1018,2 10 0,0
20.06.2017 13:00:00 27,8 15,6 29,6 13 7 22 12 ONO 1018,4 10 0,0
20.06.2017 12:00:00 26,4 16,0 28,3 16 9 25 14 ONO 1018,4 10 0,0
20.06.2017 11:00:00 25,5 16,8 27,0 15 8 25 14 NO 1018,3 10 0,0
20.06.2017 10:00:00 24,4 17,3 26,1 16 9 25 14 NO 1018,4 10 0,0
20.06.2017 09:00:00 23,5 17,4 24,6 9 5 22 12 NO 1017,9 10 0,0
20.06.2017 08:00:00 21,6 17,5 21,9 11 6 22 12 NO 1017,7 10 0,0
20.06.2017 07:00:00 19,4 17,4 18,1 4 2 7 4 NNO 1017,2 10 0,0
20.06.2017 06:00:00 17,0 16,5 13,0 2 1 7 4 NNO 1017,2 8 0,0
20.06.2017 05:00:00 16,6 16,1 13,7 5 3 7 4 NNW 1017,2 9 0,0
20.06.2017 04:00:00 17,5 16,8 12,4 4 2 4 2 O 1017,2 10 0,0
20.06.2017 03:00:00 17,3 16,8 13,2 4 2 4 2 - 1017,5 6 0,0
20.06.2017 02:00:00 17,5 17,0 13,3 5 3 7 4 NNW 1017,5 10 0,0
20.06.2017 01:00:00 17,9 16,9 14,3 2 1 4 2 N 1017,8 10 0,0
20.06.2017 00:00:00 19,8 16,4 16,7 5 3 11 6 N 1017,7 10 0,0
19.06.2017 23:00:00 21,0 16,6 17,8 8 4 11 6 N 1017,8 10 0,0
19.06.2017 22:00:00 22,3 16,8 20,0 5 3 14 8 N 1017,7 10 0,0
19.06.2017 21:00:00 24,4 17,0 23,7 9 5 22 12 N 1017,4 10 0,0
19.06.2017 20:00:00 26,4 17,4 26,6 15 8 22 12 NNW 1017,4 10 0,0
19.06.2017 19:00:00 27,2 17,1 27,7 15 8 25 14 NNW 1017,4 10 0,0
19.06.2017 18:00:00 28,6 17,7 29,9 11 6 25 14 - 1017,5 10 0,0
19.06.2017 17:00:00 29,6 16,1 31,0 8 4 29 16 O 1017,9 10 0,0
19.06.2017 16:00:00 29,8 16,1 31,8 8 4 25 14 - 1018,1 10 0,0
19.06.2017 15:00:00 29,7 16,4 31,8 8 4 25 14 O 1018,7 10 0,0
19.06.2017 14:00:00 29,6 16,7 31,1 13 7 25 14 O 1019,2 10 0,0
19.06.2017 13:00:00 28,2 17,2 30,5 9 5 25 14 - 1019,8 10 0,0
19.06.2017 12:00:00 27,8 16,9 29,9 13 7 25 14 NO 1020,1 10 0,0
19.06.2017 11:00:00 26,8 17,8 28,9 8 4 18 10 ONO 1020,3 10 0,0
19.06.2017 10:00:00 26,1 17,9 27,8 5 3 11 6 O 1020,7 10 0,0
19.06.2017 09:00:00 24,1 17,6 26,0 5 3 7 4 ONO 1020,9 10 0,0
19.06.2017 08:00:00 22,2 17,1 22,9 5 3 11 6 O 1021,1 10 0,0
19.06.2017 07:00:00 19,2 17,7 18,6 4 2 7 4 O 1021,2 10 0,0
19.06.2017 06:00:00 16,7 16,7 11,5 5 3 7 4 NNO 1021,3 9 0,0
19.06.2017 05:00:00 16,2 16,1 11,1 4 2 4 2 NO 1021,3 8 0,0

tt = temperatuur
td = dauwpunt
tt 5cm = temperatuur 5cm
ff = windsnelheid
fx = windstoten
dd = windrichting
ppp = luchtdruk
vv = zicht
rr = neerslag

Weerstations in de omgeving